SCP
-0 -0 0 -0 -0 -0 -0 -0 -0 -0 -0 0 0 0 0 0 0 0 -0 0 0 0 0 0 0 0 -0 -0 -0 -0 0 0 -0 -0 -0 0 -0 0 0 0 -0 0 -0 -0 -0
-0 -0 -0 -0 -0 -0 -0 -0 0 0 -0 0 0 0 0 0 0 -0 0 0 0 0 0 0 0 0 -0 -0 0 0 0 0 -0 0 0 -0 0 0 0 -0 -0 -0 -0 -0 -0
-0 -0 -0 -0 -0 -0 -0 -0 0 0 0 0 0 0 0 -0 0 0 0 0 0 -0 0 0 0 0 0 0 -0 0 0 0 -0 0 -0 -0 -0 -0 0 0 -0 -0 -0 -0 -0
-0 -0 -0 -0 -0 -0 -0 -0 -0 -0 0 0 -0 0 0 -0 0 0 -0 0 0 -0 -0 -0 -0 -0 -0 -0 0 0 0 0 -0 -0 0 -0 -0 0 -0 -0 0 -0 -0 -0 -0
-0 -0 -0 -0 -0 -0 -0 -0 0 0 0 -0 -0 0 0 0 0 -0 0 0 0 -0 -0 -0 -0 -0 0 0 -0 -0 -0 0 -0 -0 -0 -0 0 0 0 -0 -0 -0 -0 -0 -0
-0 0 0 0 -0 -0 0 0 0 0 0 -0 0 0 0 0 0 0 0 0 0 0 -0 0 -0 -0 0 0 0 0 -0 0 0 -0 -0 -0 -0 0 0 -0 -0 -0 -0 -0 -0
0 0 0 0 0 0 0 0 0 0 0 -0 0 0 0 0 0 0 0 0 0 0 -0 -0 -0 0 0 0 0 0 0 0 0 -0 0 0 -0 0 -0 -0 -0 -0 -0 -0 0
0 0 0 0 0 0 0 0 -0 -0 0 -0 -0 -0 0 0 0 0 0 0 0 0 -0 -0 -0 0 0 0 0 0 0 0 0 0 -0 0 -0 0 -0 0 -0 -0 -0 -0 0
0 0 0 0 0 0 0 0 -0 -0 -0 -0 -0 0 0 0 -0 0 0 0 0 0 -0 -0 0 0 0 0 0 0 0 0 0 0 0 0 0 1 0 0 -0 -0 -0 -0 -0
0 0 0 0 0 0 0 0 0 -0 -0 -0 -0 -0 -0 0 0 0 0 0 0 0 0 0 0 0 0 0 0 0 0 0 0 0 0 0 0 0 0 -0 -0 -0 -0 -0 -0
0 0 0 0 0 0 0 0 0 0 -0 -0 0 0 0 0 -0 -0 0 0 0 0 0 0 0 0 0 -0 -0 0 0 -0 -0 0 0 0 0 0 0 0 0 -0 -0 -0 -0
0 0 0 0 0 -0 -0 0 0 0 0 0 0 0 0 -0 -0 -0 -0 0 0 0 0 0 0 0 0 -0 0 0 0 0 0 0 0 0 0 0 0 0 -0 0 -0 -0 -0
0 0 0 0 0 -0 -0 0 0 0 0 0 -0 0 0 -0 0 0 -0 -0 0 0 0 0 0 -0 0 0 0 0 0 0 0 0 0 0 0 0 0 0 -0 0 -0 -0 -0
0 0 0 0 0 -0 0 -0 -0 -0 -0 0 0 0 -0 -0 0 0 0 0 0 0 0 0 0 0 0 0 0 0 0 0 0 0 0 0 0 0 0 0 -0 0 0 -0 -0
0 0 0 0 -0 0 0 0 0 -0 0 0 0 0 0 -0 0 0 0 0 0 0 0 0 0 0 0 0 0 0 0 0 0 0 0 0 0 0 0 0 0 0 -0 0 -0
0 -0 -0 -0 0 0 0 0 -0 0 0 0 0 0 -0 -0 -0 0 -0 -0 0 0 0 0 0 0 0 0 0 0 0 0 0 0 0 0 0 0 1 0 0 -0 0 -0 -0
-0 -0 0 -0 0 0 0 0 0 0 0 0 0 0 0 0 0 0 0 -0 -0 -0 -0 -0 0 0 0 0 0 0 0 0 0 0 0 0 0 0 0 -0 0 -0 -0 0 0
-0 -0 -0 0 0 0 0 -0 -0 -0 0 0 0 0 0 0 0 0 0 0 0 0 0 0 0 -0 0 0 0 0 0 0 0 0 0 0 0 0 -0 0 0 -0 0 -0 0
-0 0 -0 0 -0 0 -0 0 0 0 0 0 0 0 0 0 0 0 0 0 0 0 0 0 0 -0 0 -0 0 0 0 0 0 0 0 0 0 0 0 -0 0 0 0 1 0
0 -0 0 -0 0 0 -0 -0 0 0 0 0 0 0 0 0 0 -0 0 0 0 0 0 0 0 0 0 0 0 0 0 0 0 0 0 0 0 0 0 0 0 0 0 0 0
0 0 -0 0 -0 -0 0 0 0 0 0 0 0 0 0 0 0 0 0 0 0 0 0 0 0 0 0 0 0 0 0 0 0 0 0 0 0 0 0 0 0 0 0 0 -0
0 0 -0 0 -0 -0 -0 -0 0 -0 0 0 0 0 0 0 0 0 0 0 0 0 0 0 0 0 0 0 0 0 0 0 0 0 0 0 0 -0 0 0 0 0 0 0 0
0 0 0 0 0 -0 0 -0 -0 -0 0 0 0 0 0 0 0 0 0 0 0 0 0 0 0 0 0 0 0 0 0 0 0 0 0 0 0 0 0 0 0 0 0 0 0
0 0 0 0 0 0 0 0 0 0 0 0 0 0 0 0 0 0 0 0 0 0 0 0 0 0 0 0 0 0 0 0 0 0 0 0 0 0 0 0 0 0 0 0 1
0 0 -0 0 0 0 0 0 0 0 0 0 0 0 0 0 0 0 0 0 0 0 0 0 0 0 0 0 0 0 0 0 0 0 0 0 0 0 0 0 0 0 0 0 0
-0 -0 0 0 -0 0 0 0 0 0 0 0 0 0 0 0 -0 0 0 0 0 0 0 0 -0 0 0 0 0 0 0 0 0 0 0 0 -0 -0 -0 0 0 1 1 1 1
0 0 0 0 0 0 0 0 0 -0 0 -0 -0 -0 -0 -0 -0 -0 -0 0 -0 -0 0 0 0 0 0 0 0 0 0 0 0 0 0 0 0 0 -0 0 0 0 0 0 0
Wind_Speed_500mb
39 40 40 42 41 38 36 34 33 27 26 25 22 25 29 26 24 22 24 19 31 19 31 22 29 35 36 39 40 32 21 20 17 15 8 4 29 26 9 30 32 16 50 66 78
41 42 43 44 43 43 40 37 32 29 24 23 24 25 27 26 26 31 22 28 36 33 38 36 36 39 43 44 40 32 25 20 16 20 4 39 8 28 15 22 35 32 57 74 77
42 43 44 45 44 43 41 37 32 29 26 22 23 25 20 25 14 4 23 37 31 40 40 34 31 40 41 39 44 39 28 14 17 42 40 40 33 40 13 33 45 56 65 80 78
43 46 48 48 46 43 42 35 32 29 29 26 20 18 18 13 5 9 14 19 36 42 41 43 42 41 37 38 41 36 41 22 31 53 47 24 16 14 57 23 20 53 67 82 77
46 47 49 51 48 45 41 33 31 26 28 21 17 12 13 11 15 9 11 12 33 47 43 40 47 43 35 37 43 33 32 38 37 53 35 21 23 6 6 45 42 55 66 78 75
47 47 47 49 48 43 34 31 28 26 22 17 11 13 12 26 3 5 6 17 23 47 39 42 40 38 35 42 33 37 33 40 36 47 28 38 27 20 51 58 52 56 66 71 71
48 48 45 46 46 38 33 30 26 19 13 12 10 13 17 26 12 10 10 17 28 43 38 39 39 36 38 26 35 35 37 25 35 34 23 21 27 25 55 57 61 55 65 66 64
49 47 43 42 40 34 33 31 20 10 14 6 3 5 16 12 10 8 12 17 22 36 40 31 35 32 38 31 39 26 34 33 32 36 32 20 27 30 40 37 58 58 67 68 63
50 48 42 37 32 29 29 21 17 4 2 8 7 3 11 10 3 6 11 20 21 30 33 30 32 36 30 33 28 26 29 39 38 40 35 31 16 18 16 16 58 58 66 69 64
50 46 40 34 24 24 22 19 8 5 3 11 12 17 14 5 4 4 9 15 27 32 27 29 26 26 28 29 29 31 35 37 34 35 39 36 24 27 65 40 30 62 62 72 70
47 44 37 29 19 14 21 19 11 6 17 24 5 11 5 2 7 5 12 17 29 27 29 41 22 33 38 40 40 40 41 34 33 36 39 32 31 31 24 12 29 42 59 73 73
46 41 35 27 16 3 11 17 11 13 22 17 10 9 4 5 10 9 14 23 25 27 32 29 37 36 37 40 41 41 42 38 35 37 34 35 38 39 25 29 88 85 65 61 76
44 40 32 19 3 3 4 15 17 12 15 27 20 8 4 10 6 14 15 24 24 29 33 39 30 42 41 36 38 37 39 36 33 33 31 33 30 30 19 10 36 76 66 62 71
42 38 28 7 4 9 4 18 16 7 10 25 20 11 14 10 12 7 8 22 24 26 35 38 43 36 40 42 36 38 32 37 36 31 27 34 30 51 40 29 35 31 27 67 66
39 36 17 8 9 13 13 19 10 5 10 18 21 10 4 22 9 17 4 14 23 26 22 33 41 41 38 35 42 36 33 28 33 36 36 44 28 18 51 51 26 38 80 62 69
38 28 4 9 11 9 20 19 8 12 5 10 7 11 20 17 13 5 10 13 19 20 31 31 39 40 44 35 28 31 33 36 34 29 31 40 36 34 34 38 29 53 78 62 74
37 17 9 4 10 24 21 14 12 14 17 16 9 8 8 17 7 7 15 21 18 18 26 33 37 39 37 39 43 35 30 24 28 28 32 37 37 29 30 56 53 51 67 79 74
34 11 2 3 17 23 12 14 14 16 32 12 5 4 10 16 10 9 13 20 23 22 26 28 21 41 34 40 39 35 38 29 35 26 33 40 38 35 46 48 81 91 76 85 82
23 5 11 12 18 8 16 17 11 23 27 13 19 20 23 14 7 11 14 25 11 29 18 21 28 36 26 47 41 40 42 42 46 41 33 34 34 46 43 37 18 23 23 33 33
14 8 9 19 9 8 16 18 14 20 18 16 15 9 24 8 6 11 13 15 11 19 22 21 33 37 31 34 50 41 36 39 30 41 43 37 38 30 38 38 38 33 18 31 78
7 13 4 18 5 20 16 16 16 20 19 14 15 14 14 18 18 16 15 14 14 14 21 25 25 41 38 22 29 27 38 42 29 33 32 31 30 30 46 42 35 42 58 69 76
15 5 21 7 20 7 22 14 5 15 12 9 9 11 13 18 13 13 15 17 26 27 16 32 17 28 37 41 29 28 36 38 24 30 29 33 33 34 26 44 38 32 66 70 31
16 15 21 14 10 16 9 15 20 20 16 14 10 13 15 10 9 7 9 33 31 18 23 25 14 22 29 33 38 29 34 41 40 39 40 30 35 12 20 13 43 41 33 22 72
16 3 17 26 23 14 4 8 11 11 11 7 10 6 12 8 10 5 10 9 7 10 16 18 24 34 31 28 36 30 37 44 40 33 36 37 38 4 12 44 24 39 42 31 33
17 13 10 15 19 18 16 9 6 12 10 15 11 18 11 9 14 4 6 10 12 3 7 16 30 37 43 45 46 43 41 36 35 44 41 35 35 29 40 46 42 24 26 28 25
21 15 16 17 10 2 5 13 11 6 9 11 5 1 9 9 13 20 23 22 21 18 14 7 25 26 40 44 39 47 46 42 38 30 38 38 36 37 13 42 49 50 40 36 36
16 19 10 4 19 12 15 18 6 10 5 6 6 13 20 19 22 28 33 35 35 29 24 17 16 16 25 35 40 40 46 38 37 37 32 35 33 15 20 13 32 48 30 39 41
Wind_Direction_500mb
359 357 353 349 347 345 341 336 331 322 316 309 309 319 318 311 303 267 246 218 224 212 196 210 202 207 210 229 225 229 253 229 309 95 199 240 128 97 187 162 138 158 145 154 156
355 353 350 347 344 342 340 336 333 328 322 309 307 318 317 313 301 254 244 228 232 218 197 196 203 204 214 226 226 240 265 348 41 15 39 266 231 136 104 250 125 111 137 151 157
349 348 345 343 342 339 336 333 329 327 324 316 306 313 317 319 317 190 228 236 228 208 197 202 208 205 221 224 228 232 249 125 57 304 258 239 170 178 189 204 151 134 151 156 158
345 343 342 340 339 334 333 328 324 321 315 313 303 303 312 302 335 195 299 243 213 195 199 226 214 211 224 229 234 232 252 165 180 228 238 232 302 15 167 142 94 142 156 159 159
341 338 338 337 337 333 331 326 323 315 313 312 296 288 311 253 252 330 334 233 195 191 206 219 211 216 225 235 235 241 249 265 162 291 195 97 30 212 85 143 129 147 158 164 162
338 335 334 335 336 334 334 327 322 314 314 306 282 284 280 252 324 290 243 232 196 192 205 219 213 219 236 248 249 246 237 251 192 209 209 140 173 197 229 150 143 152 163 167 169
336 334 333 334 336 335 335 330 323 323 326 328 284 280 259 261 291 264 235 207 196 199 205 217 216 230 236 267 272 272 267 259 239 263 225 167 195 146 143 156 143 155 165 169 176
334 332 332 333 335 333 336 335 330 329 331 349 354 185 283 299 239 240 198 196 194 203 210 215 222 240 251 254 267 275 250 258 245 225 241 178 210 157 144 172 147 160 168 173 178
332 330 329 330 336 335 337 344 344 7 120 103 54 327 241 300 209 194 189 194 190 190 216 229 220 239 246 250 259 241 247 236 252 210 216 218 202 113 16 323 154 165 172 171 177
331 329 328 328 337 345 348 323 325 301 311 261 275 258 232 315 331 188 203 203 192 191 203 225 218 236 234 232 231 241 227 244 234 241 198 223 134 121 133 280 293 166 178 169 179
331 330 328 325 328 359 17 346 322 229 222 281 348 288 86 119 147 201 198 194 192 196 206 208 210 219 228 231 242 266 278 243 237 218 235 203 135 147 137 217 283 251 179 175 181
333 334 332 326 326 41 355 342 355 321 300 219 240 238 256 276 199 155 184 190 193 213 214 196 227 232 233 235 235 254 267 276 278 245 229 205 157 160 150 188 217 244 174 189 178
334 337 335 329 23 51 6 351 326 303 262 215 217 219 186 244 284 104 199 215 202 223 222 231 230 218 241 239 244 236 252 263 274 288 234 236 151 164 212 250 240 233 173 186 179
337 339 334 325 333 333 292 338 333 285 266 149 189 207 214 233 201 142 246 266 242 245 231 237 242 259 215 241 242 247 240 259 273 272 263 222 251 178 163 208 210 212 269 179 190
340 340 341 323 296 347 325 334 329 219 245 171 120 129 201 254 124 160 233 251 259 265 231 247 238 241 245 231 242 252 255 252 249 264 272 261 228 240 168 182 171 152 249 203 183
341 340 18 5 334 328 327 317 298 234 189 120 115 160 201 202 207 108 222 216 296 282 280 276 269 243 244 244 251 257 252 266 262 239 250 252 258 223 170 188 194 187 210 219 177
337 336 6 149 319 319 317 294 230 247 158 146 149 229 275 157 205 233 261 219 238 219 233 234 243 261 246 244 241 235 238 236 237 237 238 236 249 253 215 184 183 197 214 186 181
332 324 50 4 316 311 305 252 254 16 73 62 327 302 263 20 263 206 264 260 266 273 284 290 270 212 240 239 238 221 229 229 228 233 238 228 239 230 260 270 187 193 193 183 186
326 323 309 333 304 302 253 242 21 7 9 17 318 257 267 157 259 311 272 282 4 14 349 321 265 293 286 224 224 240 220 245 256 250 246 241 217 242 232 233 163 110 165 184 281
344 278 224 332 301 256 249 265 84 30 343 334 302 332 306 114 122 231 270 55 356 54 334 306 309 299 280 291 227 229 249 220 243 249 260 259 253 205 218 232 197 173 132 185 236
329 228 37 332 262 246 255 66 75 56 355 338 347 321 308 327 341 312 316 45 13 312 350 319 293 287 300 271 260 226 240 253 264 235 254 256 263 256 195 206 224 164 163 161 223
286 329 350 343 252 295 38 22 333 23 27 12 292 332 306 323 308 293 295 40 42 356 325 315 305 289 273 275 277 280 283 245 246 255 249 256 258 23 9 193 205 217 175 177 165
307 59 18 308 317 81 83 71 34 11 30 8 13 9 5 315 312 255 307 60 42 357 28 348 312 297 261 274 267 253 252 257 264 245 263 241 251 288 344 288 198 195 240 191 190
305 355 59 47 24 42 74 35 100 56 73 34 344 296 335 272 197 327 297 330 32 312 51 322 280 275 283 290 329 308 251 257 259 247 242 249 264 69 19 15 80 64 60 52 40
10 47 350 9 40 40 33 349 42 39 41 13 55 23 21 316 344 306 339 294 298 46 290 290 271 270 274 289 310 289 287 286 269 261 266 271 249 27 10 355 17 27 73 69 45
10 2 46 25 329 32 87 57 26 31 312 57 58 323 309 294 293 308 312 294 289 292 233 312 278 278 286 277 273 279 268 261 270 277 281 280 295 98 313 320 334 10 31 43 43
36 40 63 324 29 23 34 40 27 309 60 312 325 297 298 8 335 304 295 294 293 292 274 239 197 287 284 282 289 264 253 259 263 254 254 262 273 272 38 263 8 358 10 17 17
Wind_Speed_850mb
39 40 40 42 41 38 36 34 33 27 26 25 22 25 29 26 24 22 24 19 31 19 31 22 29 35 36 39 40 32 21 20 17 15 8 4 29 26 9 30 32 16 50 66 78
41 42 43 44 43 43 40 37 32 29 24 23 24 25 27 26 26 31 22 28 36 33 38 36 36 39 43 44 40 32 25 20 16 20 4 39 8 28 15 22 35 32 57 74 77
42 43 44 45 44 43 41 37 32 29 26 22 23 25 20 25 14 4 23 37 31 40 40 34 31 40 41 39 44 39 28 14 17 42 40 40 33 40 13 33 45 56 65 80 78
43 46 48 48 46 43 42 35 32 29 29 26 20 18 18 13 5 9 14 19 36 42 41 43 42 41 37 38 41 36 41 22 31 53 47 24 16 14 57 23 20 53 67 82 77
46 47 49 51 48 45 41 33 31 26 28 21 17 12 13 11 15 9 11 12 33 47 43 40 47 43 35 37 43 33 32 38 37 53 35 21 23 6 6 45 42 55 66 78 75
47 47 47 49 48 43 34 31 28 26 22 17 11 13 12 26 3 5 6 17 23 47 39 42 40 38 35 42 33 37 33 40 36 47 28 38 27 20 51 58 52 56 66 71 71
48 48 45 46 46 38 33 30 26 19 13 12 10 13 17 26 12 10 10 17 28 43 38 39 39 36 38 26 35 35 37 25 35 34 23 21 27 25 55 57 61 55 65 66 64
49 47 43 42 40 34 33 31 20 10 14 6 3 5 16 12 10 8 12 17 22 36 40 31 35 32 38 31 39 26 34 33 32 36 32 20 27 30 40 37 58 58 67 68 63
50 48 42 37 32 29 29 21 17 4 2 8 7 3 11 10 3 6 11 20 21 30 33 30 32 36 30 33 28 26 29 39 38 40 35 31 16 18 16 16 58 58 66 69 64
50 46 40 34 24 24 22 19 8 5 3 11 12 17 14 5 4 4 9 15 27 32 27 29 26 26 28 29 29 31 35 37 34 35 39 36 24 27 65 40 30 62 62 72 70
47 44 37 29 19 14 21 19 11 6 17 24 5 11 5 2 7 5 12 17 29 27 29 41 22 33 38 40 40 40 41 34 33 36 39 32 31 31 24 12 29 42 59 73 73
46 41 35 27 16 3 11 17 11 13 22 17 10 9 4 5 10 9 14 23 25 27 32 29 37 36 37 40 41 41 42 38 35 37 34 35 38 39 25 29 88 85 65 61 76
44 40 32 19 3 3 4 15 17 12 15 27 20 8 4 10 6 14 15 24 24 29 33 39 30 42 41 36 38 37 39 36 33 33 31 33 30 30 19 10 36 76 66 62 71
42 38 28 7 4 9 4 18 16 7 10 25 20 11 14 10 12 7 8 22 24 26 35 38 43 36 40 42 36 38 32 37 36 31 27 34 30 51 40 29 35 31 27 67 66
39 36 17 8 9 13 13 19 10 5 10 18 21 10 4 22 9 17 4 14 23 26 22 33 41 41 38 35 42 36 33 28 33 36 36 44 28 18 51 51 26 38 80 62 69
38 28 4 9 11 9 20 19 8 12 5 10 7 11 20 17 13 5 10 13 19 20 31 31 39 40 44 35 28 31 33 36 34 29 31 40 36 34 34 38 29 53 78 62 74
37 17 9 4 10 24 21 14 12 14 17 16 9 8 8 17 7 7 15 21 18 18 26 33 37 39 37 39 43 35 30 24 28 28 32 37 37 29 30 56 53 51 67 79 74
34 11 2 3 17 23 12 14 14 16 32 12 5 4 10 16 10 9 13 20 23 22 26 28 21 41 34 40 39 35 38 29 35 26 33 40 38 35 46 48 81 91 76 85 82
23 5 11 12 18 8 16 17 11 23 27 13 19 20 23 14 7 11 14 25 11 29 18 21 28 36 26 47 41 40 42 42 46 41 33 34 34 46 43 37 18 23 23 33 33
14 8 9 19 9 8 16 18 14 20 18 16 15 9 24 8 6 11 13 15 11 19 22 21 33 37 31 34 50 41 36 39 30 41 43 37 38 30 38 38 38 33 18 31 78
7 13 4 18 5 20 16 16 16 20 19 14 15 14 14 18 18 16 15 14 14 14 21 25 25 41 38 22 29 27 38 42 29 33 32 31 30 30 46 42 35 42 58 69 76
15 5 21 7 20 7 22 14 5 15 12 9 9 11 13 18 13 13 15 17 26 27 16 32 17 28 37 41 29 28 36 38 24 30 29 33 33 34 26 44 38 32 66 70 31
16 15 21 14 10 16 9 15 20 20 16 14 10 13 15 10 9 7 9 33 31 18 23 25 14 22 29 33 38 29 34 41 40 39 40 30 35 12 20 13 43 41 33 22 72
16 3 17 26 23 14 4 8 11 11 11 7 10 6 12 8 10 5 10 9 7 10 16 18 24 34 31 28 36 30 37 44 40 33 36 37 38 4 12 44 24 39 42 31 33
17 13 10 15 19 18 16 9 6 12 10 15 11 18 11 9 14 4 6 10 12 3 7 16 30 37 43 45 46 43 41 36 35 44 41 35 35 29 40 46 42 24 26 28 25
21 15 16 17 10 2 5 13 11 6 9 11 5 1 9 9 13 20 23 22 21 18 14 7 25 26 40 44 39 47 46 42 38 30 38 38 36 37 13 42 49 50 40 36 36
16 19 10 4 19 12 15 18 6 10 5 6 6 13 20 19 22 28 33 35 35 29 24 17 16 16 25 35 40 40 46 38 37 37 32 35 33 15 20 13 32 48 30 39 41
Wind_Direction_850mb
359 357 353 349 347 345 341 336 331 322 316 309 309 319 318 311 303 267 246 218 224 212 196 210 202 207 210 229 225 229 253 229 309 95 199 240 128 97 187 162 138 158 145 154 156
355 353 350 347 344 342 340 336 333 328 322 309 307 318 317 313 301 254 244 228 232 218 197 196 203 204 214 226 226 240 265 348 41 15 39 266 231 136 104 250 125 111 137 151 157
349 348 345 343 342 339 336 333 329 327 324 316 306 313 317 319 317 190 228 236 228 208 197 202 208 205 221 224 228 232 249 125 57 304 258 239 170 178 189 204 151 134 151 156 158
345 343 342 340 339 334 333 328 324 321 315 313 303 303 312 302 335 195 299 243 213 195 199 226 214 211 224 229 234 232 252 165 180 228 238 232 302 15 167 142 94 142 156 159 159
341 338 338 337 337 333 331 326 323 315 313 312 296 288 311 253 252 330 334 233 195 191 206 219 211 216 225 235 235 241 249 265 162 291 195 97 30 212 85 143 129 147 158 164 162
338 335 334 335 336 334 334 327 322 314 314 306 282 284 280 252 324 290 243 232 196 192 205 219 213 219 236 248 249 246 237 251 192 209 209 140 173 197 229 150 143 152 163 167 169
336 334 333 334 336 335 335 330 323 323 326 328 284 280 259 261 291 264 235 207 196 199 205 217 216 230 236 267 272 272 267 259 239 263 225 167 195 146 143 156 143 155 165 169 176
334 332 332 333 335 333 336 335 330 329 331 349 354 185 283 299 239 240 198 196 194 203 210 215 222 240 251 254 267 275 250 258 245 225 241 178 210 157 144 172 147 160 168 173 178
332 330 329 330 336 335 337 344 344 7 120 103 54 327 241 300 209 194 189 194 190 190 216 229 220 239 246 250 259 241 247 236 252 210 216 218 202 113 16 323 154 165 172 171 177
331 329 328 328 337 345 348 323 325 301 311 261 275 258 232 315 331 188 203 203 192 191 203 225 218 236 234 232 231 241 227 244 234 241 198 223 134 121 133 280 293 166 178 169 179
331 330 328 325 328 359 17 346 322 229 222 281 348 288 86 119 147 201 198 194 192 196 206 208 210 219 228 231 242 266 278 243 237 218 235 203 135 147 137 217 283 251 179 175 181
333 334 332 326 326 41 355 342 355 321 300 219 240 238 256 276 199 155 184 190 193 213 214 196 227 232 233 235 235 254 267 276 278 245 229 205 157 160 150 188 217 244 174 189 178
334 337 335 329 23 51 6 351 326 303 262 215 217 219 186 244 284 104 199 215 202 223 222 231 230 218 241 239 244 236 252 263 274 288 234 236 151 164 212 250 240 233 173 186 179
337 339 334 325 333 333 292 338 333 285 266 149 189 207 214 233 201 142 246 266 242 245 231 237 242 259 215 241 242 247 240 259 273 272 263 222 251 178 163 208 210 212 269 179 190
340 340 341 323 296 347 325 334 329 219 245 171 120 129 201 254 124 160 233 251 259 265 231 247 238 241 245 231 242 252 255 252 249 264 272 261 228 240 168 182 171 152 249 203 183
341 340 18 5 334 328 327 317 298 234 189 120 115 160 201 202 207 108 222 216 296 282 280 276 269 243 244 244 251 257 252 266 262 239 250 252 258 223 170 188 194 187 210 219 177
337 336 6 149 319 319 317 294 230 247 158 146 149 229 275 157 205 233 261 219 238 219 233 234 243 261 246 244 241 235 238 236 237 237 238 236 249 253 215 184 183 197 214 186 181
332 324 50 4 316 311 305 252 254 16 73 62 327 302 263 20 263 206 264 260 266 273 284 290 270 212 240 239 238 221 229 229 228 233 238 228 239 230 260 270 187 193 193 183 186
326 323 309 333 304 302 253 242 21 7 9 17 318 257 267 157 259 311 272 282 4 14 349 321 265 293 286 224 224 240 220 245 256 250 246 241 217 242 232 233 163 110 165 184 281
344 278 224 332 301 256 249 265 84 30 343 334 302 332 306 114 122 231 270 55 356 54 334 306 309 299 280 291 227 229 249 220 243 249 260 259 253 205 218 232 197 173 132 185 236
329 228 37 332 262 246 255 66 75 56 355 338 347 321 308 327 341 312 316 45 13 312 350 319 293 287 300 271 260 226 240 253 264 235 254 256 263 256 195 206 224 164 163 161 223
286 329 350 343 252 295 38 22 333 23 27 12 292 332 306 323 308 293 295 40 42 356 325 315 305 289 273 275 277 280 283 245 246 255 249 256 258 23 9 193 205 217 175 177 165
307 59 18 308 317 81 83 71 34 11 30 8 13 9 5 315 312 255 307 60 42 357 28 348 312 297 261 274 267 253 252 257 264 245 263 241 251 288 344 288 198 195 240 191 190
305 355 59 47 24 42 74 35 100 56 73 34 344 296 335 272 197 327 297 330 32 312 51 322 280 275 283 290 329 308 251 257 259 247 242 249 264 69 19 15 80 64 60 52 40
10 47 350 9 40 40 33 349 42 39 41 13 55 23 21 316 344 306 339 294 298 46 290 290 271 270 274 289 310 289 287 286 269 261 266 271 249 27 10 355 17 27 73 69 45
10 2 46 25 329 32 87 57 26 31 312 57 58 323 309 294 293 308 312 294 289 292 233 312 278 278 286 277 273 279 268 261 270 277 281 280 295 98 313 320 334 10 31 43 43
36 40 63 324 29 23 34 40 27 309 60 312 325 297 298 8 335 304 295 294 293 292 274 239 197 287 284 282 289 264 253 259 263 254 254 262 273 272 38 263 8 358 10 17 17